Location: 10033 Water Well
(34.0865°N, 106.8959°W)
Time: 16:53:31
(UTC+00:00)

Cosmos 2369 Rocket - Pass Details

Date: 13 January 2026
Orbit: 826 x 853 km, 71.0° (Epoch: 11 February)

Event Time Altitude Azimuth Distance (km) Brightness Sun altitude
Rises 01:55:39 0° 324° (NW) 3,420 5.7 -19.7°
Reaches altitude 10° 01:58:30 10° 312° (NW) 2,477 5.1 -20.3°
Maximum altitude 02:03:02 25° 259° (WSW) 1,640 4.5 -21.2°
Drops below altitude 10° 02:07:32 10° 205° (SSW) 2,453 5.1 -22.1°
Sets 02:10:21 0° 192° (SSW) 3,379 5.6 -22.7°
